SAS77A EBBR-ESSA

Flight info

Callsign SAS77A
Flight time 1h 54m
Altitude 39000
Route NIK L191 VICOT N873 SPY DCT KESUR DCT BEDOS N851 PELUP Z226 NILUG
Aircraft A20N/M-SDE3FGIJ1RWXY/ALB1

Departure

Time 2026-05-06 08:21
Airport Brussels Airport (EBBR)

Arrival

Time 2026-05-06 10:15
Airport Stockholm-Arlanda Airport (ESSA)
Time Latitude Longitude Altitude Speed Heading
2026-05-06 07:42 50.90349 4.48826 135 ft 0 kts 335°
2026-05-06 07:43 50.90348 4.48826 135 ft 0 kts 335°
2026-05-06 08:10 50.90341 4.48831 135 ft 2 kts 335°
2026-05-06 08:10 50.90327 4.48842 136 ft 2 kts 335°
2026-05-06 08:10 50.90313 4.48852 136 ft 2 kts 335°
2026-05-06 08:10 50.90299 4.48863 137 ft 2 kts 335°
2026-05-06 08:11 50.90285 4.48872 138 ft 2 kts 13°
2026-05-06 08:11 50.90272 4.48860 138 ft 2 kts 70°
2026-05-06 08:11 50.90272 4.48857 138 ft 0 kts 70°
2026-05-06 08:15 50.90272 4.48858 138 ft 1 kts 70°
2026-05-06 08:16 50.90276 4.48877 138 ft 3 kts 70°
2026-05-06 08:16 50.90285 4.48915 138 ft 5 kts 69°
2026-05-06 08:16 50.90302 4.48977 138 ft 7 kts 66°
2026-05-06 08:16 50.90328 4.49065 138 ft 11 kts 64°
2026-05-06 08:17 50.90365 4.49191 136 ft 14 kts 65°
2026-05-06 08:17 50.90394 4.49290 136 ft 10 kts 65°
2026-05-06 08:17 50.90430 4.49411 133 ft 14 kts 65°
2026-05-06 08:17 50.90470 4.49550 134 ft 13 kts 66°
2026-05-06 08:18 50.90513 4.49617 136 ft 9 kts 14°
2026-05-06 08:18 50.90587 4.49644 133 ft 13 kts 15°
2026-05-06 08:18 50.90688 4.49687 133 ft 16 kts 14°
2026-05-06 08:18 50.90755 4.49714 133 ft 0 kts 14°
2026-05-06 08:19 50.90767 4.49719 133 ft 4 kts 14°
2026-05-06 08:19 50.90811 4.49737 127 ft 9 kts 14°
2026-05-06 08:19 50.90897 4.49772 123 ft 16 kts 15°
2026-05-06 08:19 50.90994 4.49875 124 ft 18 kts 37°
2026-05-06 08:20 50.91116 4.49950 123 ft 15 kts 349°
2026-05-06 08:20 50.91117 4.49807 124 ft 16 kts 245°
2026-05-06 08:20 50.90990 4.49361 133 ft 78 kts 246°
2026-05-06 08:20 50.90679 4.48281 138 ft 133 kts 245°
2026-05-06 08:21 50.90235 4.46750 172 ft 173 kts 248°
2026-05-06 08:21 50.89745 4.44917 639 ft 179 kts 261°
2026-05-06 08:21 50.89979 4.43100 1299 ft 168 kts 315°
2026-05-06 08:21 50.90969 4.42161 1710 ft 178 kts 344°
2026-05-06 08:22 50.92214 4.41485 2029 ft 200 kts 342°
2026-05-06 08:22 50.93530 4.40469 2381 ft 223 kts 334°
2026-05-06 08:22 50.94938 4.39157 2837 ft 244 kts 332°
2026-05-06 08:22 50.96413 4.37714 3630 ft 252 kts 331°
2026-05-06 08:23 50.97911 4.36237 4495 ft 256 kts 330°
2026-05-06 08:23 50.99442 4.34739 5379 ft 260 kts 331°
2026-05-06 08:23 51.01004 4.33225 6244 ft 265 kts 331°
2026-05-06 08:23 51.02590 4.31698 7088 ft 268 kts 331°
2026-05-06 08:24 51.04195 4.30159 7955 ft 271 kts 330°
2026-05-06 08:24 51.05822 4.28601 8759 ft 275 kts 330°
2026-05-06 08:24 51.07472 4.27023 9601 ft 279 kts 329°
2026-05-06 08:24 51.09161 4.25414 10233 ft 290 kts 330°
2026-05-06 08:25 51.10964 4.23700 10513 ft 313 kts 330°
2026-05-06 08:25 51.12872 4.21887 11053 ft 324 kts 330°
2026-05-06 08:25 51.14821 4.20025 11790 ft 328 kts 330°
2026-05-06 08:25 51.16772 4.18095 12492 ft 333 kts 326°
2026-05-06 08:26 51.18649 4.15892 13172 ft 337 kts 325°
2026-05-06 08:26 51.20540 4.13660 13848 ft 340 kts 325°
2026-05-06 08:26 51.22450 4.11406 14455 ft 344 kts 325°
2026-05-06 08:26 51.24382 4.09126 15051 ft 347 kts 325°
2026-05-06 08:27 51.26449 4.07142 15686 ft 348 kts 335°
2026-05-06 08:27 51.28746 4.05865 16233 ft 352 kts 347°
2026-05-06 08:27 51.31185 4.05378 16768 ft 357 kts 359°
2026-05-06 08:27 51.33686 4.05344 17280 ft 362 kts 359°
2026-05-06 08:28 51.36228 4.05300 17830 ft 368 kts 359°
2026-05-06 08:28 51.38805 4.05247 18370 ft 373 kts 359°
2026-05-06 08:28 51.41418 4.05189 18949 ft 377 kts 358°
2026-05-06 08:28 51.44053 4.05134 19502 ft 380 kts 358°
2026-05-06 08:29 51.46712 4.05262 20099 ft 384 kts
2026-05-06 08:29 51.49336 4.06131 20666 ft 387 kts 17°
2026-05-06 08:29 51.51848 4.07759 21157 ft 392 kts 25°
2026-05-06 08:29 51.54331 4.09611 21660 ft 395 kts 25°
2026-05-06 08:30 51.56836 4.11472 22172 ft 399 kts 24°
2026-05-06 08:30 51.59364 4.13349 22668 ft 402 kts 25°
2026-05-06 08:30 51.61916 4.15243 23210 ft 405 kts 24°
2026-05-06 08:30 51.64449 4.17127 23651 ft 408 kts 24°
2026-05-06 08:31 51.67070 4.19078 24112 ft 410 kts 25°
2026-05-06 08:31 51.69634 4.20990 24522 ft 413 kts 25°
2026-05-06 08:31 51.72243 4.22940 24974 ft 414 kts 25°
2026-05-06 08:31 51.74903 4.24932 25361 ft 418 kts 25°
2026-05-06 08:32 51.77550 4.26917 25742 ft 420 kts 25°
2026-05-06 08:32 51.80210 4.28913 26131 ft 423 kts 25°
2026-05-06 08:32 51.82852 4.30897 26522 ft 425 kts 25°
2026-05-06 08:32 51.85537 4.32918 26922 ft 427 kts 25°
2026-05-06 08:33 51.88234 4.34950 27312 ft 429 kts 25°
2026-05-06 08:33 51.90945 4.36992 27714 ft 430 kts 25°
2026-05-06 08:33 51.93662 4.39047 28097 ft 432 kts 25°
2026-05-06 08:33 51.96390 4.41114 28502 ft 434 kts 25°
2026-05-06 08:34 51.99135 4.43195 28794 ft 438 kts 25°
2026-05-06 08:34 52.04684 4.47403 29470 ft 443 kts 25°
2026-05-06 08:34 52.07477 4.49528 29850 ft 444 kts 25°
2026-05-06 08:35 52.09371 4.50968 30062 ft 446 kts 25°
2026-05-06 08:35 52.12189 4.53113 30349 ft 448 kts 25°
2026-05-06 08:35 52.15018 4.55274 30645 ft 450 kts 25°
2026-05-06 08:35 52.17851 4.57444 31026 ft 450 kts 25°
2026-05-06 08:36 52.20681 4.59614 31419 ft 451 kts 26°
2026-05-06 08:36 52.23525 4.61798 31700 ft 452 kts 25°
2026-05-06 08:36 52.26372 4.63983 32093 ft 453 kts 25°
2026-05-06 08:36 52.29228 4.66179 32462 ft 453 kts 25°
2026-05-06 08:37 52.32072 4.68370 32895 ft 452 kts 25°
2026-05-06 08:37 52.34917 4.70562 33283 ft 452 kts 25°
2026-05-06 08:37 52.37757 4.72749 33730 ft 451 kts 25°
2026-05-06 08:37 52.40557 4.74909 34058 ft 451 kts 26°
2026-05-06 08:38 52.43392 4.77103 34386 ft 451 kts 25°
2026-05-06 08:38 52.46227 4.79305 34645 ft 452 kts 25°
2026-05-06 08:38 52.49066 4.81510 34948 ft 452 kts 25°
2026-05-06 08:38 52.51858 4.83891 35201 ft 452 kts 32°
2026-05-06 08:39 52.54402 4.86916 35474 ft 452 kts 41°
2026-05-06 08:39 52.56635 4.90537 35702 ft 452 kts 51°
2026-05-06 08:39 52.58642 4.94531 35865 ft 453 kts 51°
2026-05-06 08:40 52.62663 5.02558 35886 ft 455 kts 52°
2026-05-06 08:40 52.66694 5.10586 35903 ft 456 kts 51°
2026-05-06 08:41 52.70731 5.18675 35898 ft 457 kts 51°
2026-05-06 08:41 52.74756 5.26792 35899 ft 457 kts 52°
2026-05-06 08:42 52.78777 5.34918 35893 ft 457 kts 51°
2026-05-06 08:42 52.82799 5.43049 35895 ft 457 kts 51°
2026-05-06 08:43 52.86816 5.51206 35896 ft 457 kts 52°
2026-05-06 08:43 52.90819 5.59394 35886 ft 458 kts 52°
2026-05-06 08:44 52.94823 5.67604 35892 ft 458 kts 52°
2026-05-06 08:44 52.98833 5.75816 35894 ft 458 kts 52°
2026-05-06 08:45 53.02835 5.84041 35899 ft 458 kts 52°
2026-05-06 08:45 53.06831 5.92291 35901 ft 458 kts 52°
2026-05-06 08:46 53.10816 6.00565 35902 ft 458 kts 52°
2026-05-06 08:46 53.14804 6.08855 35897 ft 459 kts 52°
2026-05-06 08:47 53.18797 6.17162 35873 ft 459 kts 52°
2026-05-06 08:47 53.22784 6.25498 35883 ft 460 kts 52°
2026-05-06 08:48 53.26765 6.33873 35888 ft 460 kts 53°
2026-05-06 08:48 53.30743 6.42255 35896 ft 460 kts 53°
2026-05-06 08:49 53.34720 6.50651 35899 ft 460 kts 53°
2026-05-06 08:49 53.38659 6.59013 35907 ft 460 kts 53°
2026-05-06 08:50 53.42619 6.67445 35907 ft 460 kts 53°
2026-05-06 08:50 53.46572 6.75892 35904 ft 460 kts 53°
2026-05-06 08:51 53.50520 6.84356 35901 ft 460 kts 53°
2026-05-06 08:51 53.54460 6.92816 35916 ft 460 kts 53°
2026-05-06 08:52 53.58396 7.01308 35906 ft 461 kts 53°
2026-05-06 08:52 53.62335 7.09823 35898 ft 461 kts 53°
2026-05-06 08:53 53.66273 7.18370 35907 ft 461 kts 53°
2026-05-06 08:53 53.70205 7.26936 35908 ft 462 kts 54°
2026-05-06 08:54 53.74128 7.35515 35915 ft 462 kts 54°
2026-05-06 08:54 53.78046 7.44113 35924 ft 462 kts 54°
2026-05-06 08:55 53.81959 7.52726 35916 ft 462 kts 54°
2026-05-06 08:55 53.85870 7.61372 35910 ft 462 kts 55°
2026-05-06 08:56 53.89776 7.70040 35913 ft 463 kts 55°
2026-05-06 08:56 53.93675 7.78720 35921 ft 463 kts 55°
2026-05-06 08:57 53.97574 7.87418 35922 ft 463 kts 55°
2026-05-06 08:57 54.01472 7.96132 35921 ft 463 kts 55°
2026-05-06 08:58 54.05360 8.04876 35910 ft 463 kts 55°
2026-05-06 08:58 54.09215 8.13587 35918 ft 464 kts 55°
2026-05-06 08:59 54.13091 8.22376 35920 ft 464 kts 55°
2026-05-06 08:59 54.16970 8.31175 35906 ft 464 kts 55°
2026-05-06 09:00 54.20840 8.39984 35915 ft 464 kts 55°
2026-05-06 09:00 54.24709 8.48829 35905 ft 465 kts 56°
2026-05-06 09:01 54.28566 8.57713 35894 ft 465 kts 56°
2026-05-06 09:01 54.32426 8.66605 35903 ft 465 kts 56°
2026-05-06 09:02 54.36281 8.75511 35917 ft 465 kts 56°
2026-05-06 09:02 54.40129 8.84436 35914 ft 465 kts 56°
2026-05-06 09:03 54.43964 8.93373 35921 ft 465 kts 56°
2026-05-06 09:03 54.47799 9.02347 35913 ft 466 kts 56°
2026-05-06 09:04 54.51634 9.11347 35909 ft 467 kts 56°
2026-05-06 09:04 54.55473 9.20375 35902 ft 467 kts 56°
2026-05-06 09:05 54.59299 9.29412 35912 ft 467 kts 56°
2026-05-06 09:05 54.63123 9.38462 35921 ft 467 kts 57°
2026-05-06 09:06 54.66930 9.47546 35919 ft 467 kts 57°
2026-05-06 09:06 54.70737 9.56652 35918 ft 468 kts 57°
2026-05-06 09:07 54.74553 9.65785 35916 ft 468 kts 57°
2026-05-06 09:07 54.78333 9.74880 35923 ft 469 kts 57°
2026-05-06 09:08 54.82131 9.84071 35922 ft 468 kts 57°
2026-05-06 09:08 54.86238 9.92837 35968 ft 470 kts 49°
2026-05-06 09:09 54.90691 10.01164 35952 ft 471 kts 49°
2026-05-06 09:09 54.95131 10.09540 35945 ft 471 kts 49°
2026-05-06 09:10 54.99576 10.17926 35944 ft 471 kts 49°
2026-05-06 09:10 55.04015 10.26339 35946 ft 472 kts 50°
2026-05-06 09:11 55.08450 10.34768 35951 ft 472 kts 50°
2026-05-06 09:11 55.12887 10.43231 35942 ft 473 kts 49°
2026-05-06 09:12 55.17328 10.51725 35935 ft 474 kts 49°
2026-05-06 09:12 55.21769 10.60245 35941 ft 474 kts 50°
2026-05-06 09:13 55.26204 10.68810 35940 ft 474 kts 50°
2026-05-06 09:13 55.30627 10.77395 35945 ft 475 kts 50°
2026-05-06 09:14 55.35059 10.86008 35938 ft 476 kts 49°
2026-05-06 09:14 55.39485 10.94640 35932 ft 477 kts 49°
2026-05-06 09:15 55.43936 11.03317 35939 ft 478 kts 49°
2026-05-06 09:15 55.48373 11.12041 35943 ft 478 kts 50°
2026-05-06 09:16 55.52804 11.20808 35931 ft 478 kts 50°
2026-05-06 09:16 55.57229 11.29573 35953 ft 478 kts 50°
2026-05-06 09:17 55.61647 11.38326 35965 ft 477 kts 50°
2026-05-06 09:17 55.66058 11.47095 35965 ft 476 kts 50°
2026-05-06 09:18 55.70424 11.55821 35960 ft 476 kts 50°
2026-05-06 09:18 55.74804 11.64633 35961 ft 476 kts 50°
2026-05-06 09:19 55.79185 11.73479 35949 ft 477 kts 50°
2026-05-06 09:19 55.83572 11.82363 35931 ft 479 kts 50°
2026-05-06 09:20 55.87966 11.91282 35939 ft 479 kts 50°
2026-05-06 09:20 55.92357 12.00217 35943 ft 479 kts 51°
2026-05-06 09:21 55.96738 12.09169 35956 ft 479 kts 51°
2026-05-06 09:21 56.00405 12.16690 35964 ft 479 kts 50°
2026-05-06 09:22 56.04763 12.25689 35958 ft 481 kts 50°
2026-05-06 09:22 56.09109 12.34690 35948 ft 481 kts 50°
2026-05-06 09:23 56.13488 12.43775 35945 ft 482 kts 51°
2026-05-06 09:23 56.17868 12.52891 35952 ft 482 kts 51°
2026-05-06 09:24 56.22247 12.62032 35960 ft 483 kts 50°
2026-05-06 09:24 56.26631 12.71217 35921 ft 484 kts 51°
2026-05-06 09:25 56.31008 12.80438 35936 ft 485 kts 51°
2026-05-06 09:25 56.35378 12.89701 35949 ft 485 kts 51°
2026-05-06 09:26 56.39745 12.98973 35952 ft 485 kts 51°
2026-05-06 09:26 56.44107 13.08267 35970 ft 486 kts 51°
2026-05-06 09:27 56.48468 13.17624 35943 ft 487 kts 51°
2026-05-06 09:27 56.52841 13.27023 35940 ft 488 kts 51°
2026-05-06 09:28 56.57214 13.36451 35947 ft 489 kts 51°
2026-05-06 09:28 56.61593 13.45917 35926 ft 489 kts 52°
2026-05-06 09:29 56.65954 13.55400 35974 ft 489 kts 51°
2026-05-06 09:29 56.70316 13.64922 35954 ft 490 kts 51°
2026-05-06 09:30 56.74680 13.74484 35958 ft 491 kts 51°
2026-05-06 09:30 56.79039 13.84087 35961 ft 492 kts 51°
2026-05-06 09:31 56.83392 13.93723 35968 ft 492 kts 51°
2026-05-06 09:31 56.87745 14.03379 35988 ft 493 kts 51°
2026-05-06 09:32 56.92106 14.13076 35971 ft 494 kts 51°
2026-05-06 09:32 56.96464 14.22824 35969 ft 495 kts 51°
2026-05-06 09:33 57.00797 14.32536 35956 ft 495 kts 51°
2026-05-06 09:33 57.05176 14.42404 35966 ft 495 kts 51°
2026-05-06 09:34 57.09486 14.52173 35997 ft 495 kts 51°
2026-05-06 09:34 57.13825 14.62042 35979 ft 496 kts 51°
2026-05-06 09:35 57.18133 14.71877 35974 ft 497 kts 51°
2026-05-06 09:35 57.22487 14.81851 35977 ft 497 kts 52°
2026-05-06 09:36 57.26814 14.91820 35987 ft 498 kts 52°
2026-05-06 09:36 57.31135 15.01821 36022 ft 498 kts 51°
2026-05-06 09:37 57.35537 15.11730 35981 ft 499 kts 45°
2026-05-06 09:37 57.40840 15.19940 35976 ft 498 kts 35°
2026-05-06 09:38 57.46348 15.27768 35988 ft 499 kts 36°
2026-05-06 09:38 57.51841 15.35643 35993 ft 499 kts 36°
2026-05-06 09:39 57.57333 15.43558 36019 ft 499 kts 35°
2026-05-06 09:39 57.62828 15.51487 36016 ft 500 kts 35°
2026-05-06 09:40 57.68323 15.59445 36020 ft 500 kts 35°
2026-05-06 09:40 57.76550 15.71432 36028 ft 500 kts 35°
2026-05-06 09:41 57.82035 15.79437 36027 ft 500 kts 35°
2026-05-06 09:41 57.84770 15.83447 35635 ft 500 kts 36°
2026-05-06 09:41 57.87547 15.87533 34542 ft 512 kts 36°
2026-05-06 09:42 57.90330 15.91644 34298 ft 503 kts 36°
2026-05-06 09:42 57.93064 15.95692 33883 ft 499 kts 36°
2026-05-06 09:42 57.95786 15.99722 33385 ft 496 kts 36°
2026-05-06 09:42 57.98485 16.03720 32929 ft 492 kts 36°
2026-05-06 09:43 58.01166 16.07691 32461 ft 489 kts 35°
2026-05-06 09:43 58.03837 16.11655 31952 ft 487 kts 34°
2026-05-06 09:43 58.06488 16.15597 31599 ft 481 kts 35°
2026-05-06 09:43 58.09081 16.19469 31488 ft 470 kts 35°
2026-05-06 09:44 58.11613 16.23270 31376 ft 460 kts 35°
2026-05-06 09:44 58.14091 16.27000 31270 ft 451 kts 35°
2026-05-06 09:44 58.19012 16.34397 31069 ft 452 kts 35°
2026-05-06 09:45 58.21476 16.38109 30966 ft 452 kts 35°
2026-05-06 09:45 58.23936 16.41822 30799 ft 452 kts 35°
2026-05-06 09:45 58.26389 16.45587 30411 ft 455 kts 38°
2026-05-06 09:45 58.28635 16.49868 29912 ft 460 kts 47°
2026-05-06 09:46 58.30594 16.54688 29483 ft 461 kts 52°
2026-05-06 09:46 58.32498 16.59585 29063 ft 460 kts 52°
2026-05-06 09:46 58.34400 16.64464 28637 ft 458 kts 51°
2026-05-06 09:46 58.36298 16.69319 28225 ft 457 kts 51°
2026-05-06 09:47 58.38195 16.74174 27822 ft 456 kts 51°
2026-05-06 09:47 58.40055 16.78952 27429 ft 454 kts 51°
2026-05-06 09:47 58.41930 16.83779 27031 ft 452 kts 51°
2026-05-06 09:47 58.43797 16.88597 26633 ft 451 kts 51°
2026-05-06 09:48 58.45655 16.93400 26239 ft 449 kts 51°
2026-05-06 09:48 58.47503 16.98191 25884 ft 447 kts 51°
2026-05-06 09:48 58.49344 17.02980 25408 ft 448 kts 51°
2026-05-06 09:48 58.51185 17.07779 24996 ft 446 kts 51°
2026-05-06 09:49 58.53017 17.12563 24547 ft 445 kts 51°
2026-05-06 09:49 58.54844 17.17342 24123 ft 444 kts 51°
2026-05-06 09:49 58.56665 17.22122 23675 ft 444 kts 51°
2026-05-06 09:49 58.58478 17.26900 23172 ft 443 kts 51°
2026-05-06 09:50 58.60281 17.31669 22723 ft 440 kts 51°
2026-05-06 09:50 58.62071 17.36404 22257 ft 437 kts 51°
2026-05-06 09:50 58.63852 17.41108 21803 ft 434 kts 51°
2026-05-06 09:50 58.65622 17.45786 21342 ft 432 kts 51°
2026-05-06 09:51 58.67377 17.50432 20962 ft 427 kts 51°
2026-05-06 09:51 58.69114 17.55043 20542 ft 424 kts 51°
2026-05-06 09:51 58.70831 17.59615 20030 ft 422 kts 51°
2026-05-06 09:51 58.72532 17.64154 19732 ft 415 kts 51°
2026-05-06 09:52 58.74201 17.68625 19105 ft 408 kts 51°
2026-05-06 09:52 58.75835 17.73005 18616 ft 396 kts 51°
2026-05-06 09:52 58.77411 17.77241 18172 ft 382 kts 51°
2026-05-06 09:52 58.78931 17.81336 17736 ft 369 kts 51°
2026-05-06 09:53 58.80452 17.85201 17332 ft 354 kts 44°
2026-05-06 09:53 58.82196 17.88384 16946 ft 338 kts 32°
2026-05-06 09:53 58.84139 17.90848 16716 ft 339 kts 22°
2026-05-06 09:53 58.86282 17.92874 16440 ft 346 kts 20°
2026-05-06 09:54 58.88448 17.94905 16162 ft 346 kts 20°
2026-05-06 09:54 58.90603 17.96946 15892 ft 344 kts 20°
2026-05-06 09:54 58.92746 17.98985 15638 ft 342 kts 20°
2026-05-06 09:54 58.94838 18.00981 15353 ft 338 kts 20°
2026-05-06 09:55 58.96943 18.02988 15088 ft 336 kts 20°
2026-05-06 09:55 58.99037 18.04982 14821 ft 334 kts 20°
2026-05-06 09:55 59.01117 18.06963 14557 ft 332 kts 20°
2026-05-06 09:55 59.03186 18.08934 14295 ft 330 kts 20°
2026-05-06 09:56 59.05239 18.10889 14032 ft 328 kts 20°
2026-05-06 09:56 59.07277 18.12831 13764 ft 326 kts 20°
2026-05-06 09:56 59.09341 18.14543 13492 ft 319 kts 11°
2026-05-06 09:56 59.11478 18.15404 13245 ft 310 kts 359°
2026-05-06 09:57 59.13619 18.15660 12995 ft 307 kts 357°
2026-05-06 09:57 59.15748 18.15903 12764 ft 306 kts 358°
2026-05-06 09:57 59.17870 18.16154 12514 ft 305 kts 358°
2026-05-06 09:57 59.19981 18.16405 12290 ft 303 kts 358°
2026-05-06 09:58 59.22077 18.16654 12046 ft 302 kts 358°
2026-05-06 09:58 59.24174 18.16906 11795 ft 301 kts 358°
2026-05-06 09:58 59.26257 18.17153 11561 ft 299 kts 358°
2026-05-06 09:58 59.28333 18.17397 11328 ft 298 kts 359°
2026-05-06 09:59 59.30400 18.17641 11085 ft 297 kts 359°
2026-05-06 09:59 59.32458 18.17886 10857 ft 296 kts 359°
2026-05-06 09:59 59.34506 18.18125 10627 ft 295 kts 359°
2026-05-06 09:59 59.36545 18.18362 10381 ft 292 kts 359°
2026-05-06 10:00 59.38544 18.18601 10252 ft 283 kts 359°
2026-05-06 10:00 59.40479 18.18840 10123 ft 274 kts 359°
2026-05-06 10:00 59.42351 18.19070 9976 ft 266 kts 359°
2026-05-06 10:00 59.44180 18.19292 9824 ft 260 kts 359°
2026-05-06 10:01 59.45986 18.19506 9660 ft 260 kts 359°
2026-05-06 10:01 59.47788 18.19714 9461 ft 258 kts 359°
2026-05-06 10:01 59.49560 18.19921 9323 ft 251 kts 359°
2026-05-06 10:01 59.51279 18.20125 9177 ft 244 kts 359°
2026-05-06 10:02 59.52953 18.20332 8952 ft 241 kts
2026-05-06 10:02 59.54611 18.20875 8676 ft 240 kts
2026-05-06 10:02 59.56242 18.21473 8446 ft 237 kts
2026-05-06 10:02 59.57852 18.22059 8240 ft 234 kts
2026-05-06 10:03 59.59450 18.22637 8038 ft 233 kts
2026-05-06 10:03 59.61042 18.23214 7830 ft 232 kts
2026-05-06 10:03 59.62626 18.23788 7630 ft 231 kts
2026-05-06 10:03 59.64203 18.24361 7426 ft 230 kts
2026-05-06 10:04 59.65767 18.24929 7225 ft 229 kts
2026-05-06 10:04 59.67316 18.25492 7024 ft 228 kts
2026-05-06 10:04 59.68872 18.26059 6825 ft 227 kts
2026-05-06 10:04 59.70419 18.26624 6626 ft 226 kts
2026-05-06 10:05 59.71961 18.27188 6426 ft 225 kts
2026-05-06 10:05 59.73499 18.27751 6221 ft 224 kts
2026-05-06 10:05 59.75029 18.28313 6021 ft 224 kts
2026-05-06 10:05 59.76558 18.28877 5823 ft 223 kts
2026-05-06 10:06 59.78089 18.29442 5620 ft 224 kts
2026-05-06 10:06 59.79620 18.30008 5428 ft 224 kts
2026-05-06 10:06 59.81149 18.30573 5225 ft 223 kts
2026-05-06 10:06 59.82649 18.31093 5086 ft 215 kts
2026-05-06 10:07 59.84081 18.30755 4960 ft 202 kts 338°
2026-05-06 10:07 59.85239 18.29393 4836 ft 189 kts 316°
2026-05-06 10:07 59.86017 18.27335 4550 ft 185 kts 294°
2026-05-06 10:07 59.86343 18.24906 4346 ft 182 kts 274°
2026-05-06 10:08 59.86208 18.22417 4144 ft 182 kts 252°
2026-05-06 10:08 59.85650 18.20156 3964 ft 183 kts 240°
2026-05-06 10:08 59.85004 18.17978 3785 ft 185 kts 239°
2026-05-06 10:08 59.84562 18.16484 3663 ft 189 kts 240°
2026-05-06 10:09 59.83692 18.13540 3408 ft 179 kts 240°
2026-05-06 10:09 59.83280 18.12150 3331 ft 172 kts 240°
2026-05-06 10:09 59.82692 18.10169 3258 ft 161 kts 240°
2026-05-06 10:09 59.82147 18.08320 3161 ft 148 kts 240°
2026-05-06 10:10 59.81646 18.06619 3112 ft 140 kts 240°
2026-05-06 10:10 59.81166 18.04993 3025 ft 135 kts 240°
2026-05-06 10:10 59.80676 18.03394 2954 ft 135 kts 233°
2026-05-06 10:10 59.80015 18.02063 2873 ft 137 kts 217°
2026-05-06 10:11 59.79144 18.01281 2778 ft 140 kts 193°
2026-05-06 10:11 59.78200 18.00854 2689 ft 139 kts 195°
2026-05-06 10:11 59.77250 18.00451 2601 ft 141 kts 192°
2026-05-06 10:11 59.76296 18.00074 2478 ft 139 kts 193°
2026-05-06 10:12 59.75347 17.99712 2282 ft 138 kts 192°
2026-05-06 10:12 59.74404 17.99361 2094 ft 138 kts 192°
2026-05-06 10:12 59.73464 17.99015 1908 ft 137 kts 192°
2026-05-06 10:12 59.72524 17.98671 1730 ft 138 kts 193°
2026-05-06 10:13 59.71584 17.98327 1520 ft 137 kts 193°
2026-05-06 10:13 59.70651 17.97987 1339 ft 137 kts 192°
2026-05-06 10:13 59.69715 17.97646 1150 ft 136 kts 192°
2026-05-06 10:13 59.68786 17.97308 950 ft 135 kts 192°
2026-05-06 10:14 59.67859 17.96971 764 ft 135 kts 192°
2026-05-06 10:14 59.66950 17.96640 576 ft 134 kts 191°
2026-05-06 10:14 59.66038 17.96308 395 ft 132 kts 191°
2026-05-06 10:14 59.65140 17.95984 216 ft 131 kts 192°
2026-05-06 10:15 59.64279 17.95654 145 ft 110 kts 191°
2026-05-06 10:15 59.63693 17.95453 145 ft 61 kts 189°
2026-05-06 10:15 59.63450 17.95351 144 ft 11 kts 206°
2026-05-06 10:15 59.63356 17.95231 140 ft 22 kts 217°
2026-05-06 10:16 59.63245 17.95025 138 ft 21 kts 245°
2026-05-06 10:16 59.63249 17.94938 138 ft 0 kts 300°
2026-05-06 10:17 59.63252 17.94930 138 ft 2 kts 301°
2026-05-06 10:17 59.63270 17.94901 138 ft 5 kts 339°
2026-05-06 10:17 59.63310 17.94905 138 ft 7 kts
2026-05-06 10:17 59.63369 17.94925 138 ft 10 kts 11°
2026-05-06 10:18 59.63446 17.94955 138 ft 13 kts 11°
2026-05-06 10:18 59.63544 17.94993 138 ft 16 kts 11°
2026-05-06 10:18 59.63659 17.95038 138 ft 19 kts 11°
2026-05-06 10:18 59.63773 17.95078 138 ft 16 kts
2026-05-06 10:19 59.63895 17.95120 138 ft 20 kts
2026-05-06 10:19 59.64037 17.95171 138 ft 22 kts 10°
2026-05-06 10:19 59.64187 17.95225 138 ft 22 kts 10°
2026-05-06 10:19 59.64329 17.95277 138 ft 21 kts 11°
2026-05-06 10:20 59.64472 17.95328 138 ft 22 kts 10°
2026-05-06 10:20 59.64629 17.95384 138 ft 22 kts 11°
2026-05-06 10:20 59.64779 17.95441 138 ft 17 kts 11°
2026-05-06 10:20 59.64873 17.95476 138 ft 15 kts 11°
2026-05-06 10:21 59.64988 17.95513 138 ft 18 kts
2026-05-06 10:21 59.65123 17.95471 138 ft 21 kts 347°
2026-05-06 10:21 59.65277 17.95393 138 ft 24 kts 345°
2026-05-06 10:21 59.65430 17.95311 138 ft 19 kts 344°
2026-05-06 10:22 59.65568 17.95237 138 ft 22 kts 345°
2026-05-06 10:22 59.65687 17.95172 138 ft 15 kts 345°
2026-05-06 10:22 59.65748 17.95008 138 ft 18 kts 261°
2026-05-06 10:22 59.65716 17.94755 138 ft 20 kts 255°
2026-05-06 10:23 59.65679 17.94479 138 ft 22 kts 256°
2026-05-06 10:23 59.65639 17.94172 138 ft 24 kts 257°
2026-05-06 10:23 59.65602 17.93891 138 ft 15 kts 240°
2026-05-06 10:23 59.65514 17.93892 138 ft 15 kts 165°
2026-05-06 10:24 59.65420 17.93943 138 ft 11 kts 165°
2026-05-06 10:24 59.65384 17.93961 138 ft 0 kts 166°
2026-05-06 10:25 59.65376 17.93965 138 ft 3 kts 165°
2026-05-06 10:25 59.65376 17.93986 138 ft 2 kts 64°
2026-05-06 10:26 59.65386 17.93982 138 ft 1 kts 340°
2026-05-06 10:26 59.65403 17.93959 138 ft 4 kts 320°
2026-05-06 10:26 59.65402 17.93889 138 ft 7 kts 252°
2026-05-06 10:26 59.65387 17.93784 138 ft 7 kts 255°
2026-05-06 10:27 59.65386 17.93773 138 ft 0 kts 256°